CZ-3C DEB, 40861

Orbit data source: Space-Track

CZ-3C DEB, 40861 is space debris in HEO originally from a launch on Fri, 24 Feb 2012 UTC launched from the Xichang Space Center, China (XSC). Debris objects in space refer to the collection of defunct objects orbiting the Earth. Examples of debris include non-operational satellites, rocket bodies, and fragments generated from explosions, collisions, or faulty payload assembly.

Loading next visibility...
Identifier
40861, 2012-008AB
Orbit
HEO
Country
Flag of CNCN / PRC
Related business
Manufacturer
CALT
Mission
Spacecraft
Bus & Motor
Unknown
Mass
Unknown
Launch date (UTC)
2012-02-24 (14 years ago)
Launch vehicle
Unknown
Launch site
Xichang Space Center, China (XSC)
Object type
Payload
Rocket body
Debris
Shape & HBR
Unknown shape, 0.1 m
Radar Cross Section
Medium (>0.1 m² and <1 m²)

Expand to show TLE details & history
Last TLE update: 2 weeks ago

TLE from 2 weeks ago
0 CZ-3C DEB
1 40861U 12008AB  26057.98476671 -.00000005  00000-0  14502-2 0  9998
2 40861  21.2645  13.8204 7100794 207.2949  83.5541  2.28986905 93940
Epoch: 2026-02-26T23:38Z
TLE epoch observation values (Epoch: 2026-02-26T23:38:03.843Z)
Latitude
0.00006°
Longitude
-137.52948°
Altitude
26,339.495 km
Speed
2.824 km/s
True Right ascension
00h 55m 15s
True Declination
0° 00' 00"
Sunlit
Object was in daylight at epoch
Visualization orbit readout
Latitude
Unknown
Longitude
Unknown
Altitude
Unknown
Speed
Unknown
Apparent Right ascension
Unknown
Apparent Declination
Unknown
Sunlit
N/A
Visualization observer readout
Local Sidereal Time
18:59:52
Azimuth
Unknown
Elevation
Unknown
Doppler factor
Unknown
Orbital elements
Apogee altitude
35,208.361 km
Perigee altitude
672.286 km
Semi-major axis
24,318.46 km
Eccentricity
0.71008
Inclination
21.2645°
RAAN
13.8204°
Arg. of periapsis
207.2949°
True anomaly
152.78727°
Mean anomaly
83.5541°
Eccentric anomaly
119.10233°
Mean motion
0.57232 °/min
Orbital period
629.02 mins
BSTAR
0.0014502
Loading maneuver chart data...
Computing Atmospheric mass density...
Loading historical data...
Loading historical data...
Loading historical data...
Loading historical data...
Loading historical data...
Loading historical data...
Loading historical data...

Documentation

Showing up to 5 results
|